Location: Jaite
(41.2884°N, 81.5737°W)
Time: 21:13:13
(UTC+00:00)

Cosmos 724 - Pass Details

Date: 18 January 2020
Orbit: 864 x 931 km, 65.6° (Epoch: 16 February)

Event Time Altitude Azimuth Distance (km) Brightness Sun altitude
Rises 00:36:46 0° 215° (SW) 3,519 8.0 -24.6°
Reaches altitude 10° 00:39:18 10° 217° (SW) 2,572 7.2 -25.1°
Maximum altitude 00:45:16 75° 302° (WNW) 923 4.4 -26.2°
Enters shadow 00:47:01 47° 15° (NNE) 1,161 4.7 -26.5°
